Time,TemperatureF,DewpointF,PressureIn,WindDirection,WindDirectionDegrees,WindSpeedMPH,WindSpeedGustMPH,Humidity,HourlyPrecipIn,Conditions,Clouds,dailyrainin,SoftwareType,DateUTC
2012-11-02 00:00:00,41.2,22.5,29.81,West,270,3.0,12.0,47,0.00,,,-99.99,WeatherLink 5.6,2012-11-02 04:00:00,
2012-11-02 00:30:00,41.1,22.9,29.80,WSW,247,1.0,9.0,48,0.00,,,-99.99,WeatherLink 5.6,2012-11-02 04:30:00,
2012-11-02 01:00:00,41.1,22.9,29.79,WSW,247,3.0,10.0,48,0.00,,,-99.99,WeatherLink 5.6,2012-11-02 05:00:00,
2012-11-02 01:30:00,41.8,23.0,29.78,WSW,247,5.0,13.0,47,0.00,,,-99.99,WeatherLink 5.6,2012-11-02 05:30:00,
2012-11-02 02:00:00,41.7,23.4,29.78,WSW,247,5.0,13.0,48,0.00,,,-99.99,WeatherLink 5.6,2012-11-02 06:00:00,
2012-11-02 02:30:00,41.8,23.5,29.77,WSW,247,4.0,12.0,48,0.00,,,-99.99,WeatherLink 5.6,2012-11-02 06:30:00,
2012-11-02 03:00:00,42.0,24.7,29.77,WSW,247,4.0,12.0,50,0.00,,,-99.99,WeatherLink 5.6,2012-11-02 07:00:00,
2012-11-02 03:30:00,42.0,25.6,29.75,West,270,2.0,12.0,52,0.00,,,-99.99,WeatherLink 5.6,2012-11-02 07:30:00,
2012-11-02 04:00:00,42.5,27.5,29.75,WNW,292,6.0,17.0,55,0.00,,,-99.99,WeatherLink 5.6,2012-11-02 08:00:00,
2012-11-02 04:30:00,42.9,28.7,29.75,WNW,292,3.0,12.0,57,0.00,,,-99.99,WeatherLink 5.6,2012-11-02 08:30:00,
2012-11-02 05:00:00,43.1,28.9,29.74,West,270,4.0,15.0,57,0.00,,,-99.99,WeatherLink 5.6,2012-11-02 09:00:00,
2012-11-02 05:30:00,42.0,28.3,29.74,WNW,292,1.0,7.0,58,0.00,,,-99.99,WeatherLink 5.6,2012-11-02 09:30:00,
2012-11-02 05:40:00,42.4,28.7,29.73,SW,225,2.0,9.0,58,0.00,,,-99.99,WeatherLink 5.6,2012-11-02 09:40:00,
2012-11-02 06:10:00,42.3,29.4,29.73,SSW,202,2.0,10.0,60,0.00,,,-99.99,WeatherLink 5.6,2012-11-02 10:10:00,
2012-11-02 06:40:00,42.0,29.9,29.73,SSW,202,1.0,11.0,62,0.00,,,-99.99,WeatherLink 5.6,2012-11-02 10:40:00,
2012-11-02 07:10:00,42.4,30.7,29.73,SSW,202,2.0,11.0,63,0.00,,,-99.99,WeatherLink 5.6,2012-11-02 11:10:00,
2012-11-02 07:40:00,41.9,30.6,29.73,SSW,202,3.0,12.0,64,0.00,,,-99.99,WeatherLink 5.6,2012-11-02 11:40:00,
2012-11-02 08:10:00,41.9,31.0,29.73,SSW,202,2.0,11.0,65,0.00,,,-99.99,WeatherLink 5.6,2012-11-02 12:10:00,
2012-11-02 08:40:00,41.7,31.2,29.75,SSW,202,1.0,7.0,66,0.00,,,-99.99,WeatherLink 5.6,2012-11-02 12:40:00,
2012-11-02 09:10:00,42.8,32.2,29.75,WSW,247,1.0,10.0,66,0.00,,,-99.99,WeatherLink 5.6,2012-11-02 13:10:00,
2012-11-02 09:40:00,44.2,33.9,29.76,WNW,292,8.0,17.0,67,0.00,,,-99.99,WeatherLink 5.6,2012-11-02 13:40:00,
2012-11-02 10:10:00,44.2,34.3,29.76,WNW,292,9.0,25.0,68,0.00,,,-99.99,WeatherLink 5.6,2012-11-02 14:10:00,
2012-11-02 10:40:00,44.0,34.5,29.78,NW,315,8.0,22.0,69,0.00,,,-99.99,WeatherLink 5.6,2012-11-02 14:40:00,
2012-11-02 11:10:00,43.3,34.9,29.79,NW,315,8.0,19.0,72,0.00,,,-99.99,WeatherLink 5.6,2012-11-02 15:10:00,
2012-11-02 11:40:00,43.1,34.7,29.79,NW,315,9.0,21.0,72,0.00,,,-99.99,WeatherLink 5.6,2012-11-02 15:40:00,
2012-11-02 12:10:00,44.0,35.2,29.80,WNW,292,5.0,23.0,71,0.00,,,-99.99,WeatherLink 5.6,2012-11-02 16:10:00,
2012-11-02 12:40:00,44.3,33.3,29.80,NW,315,8.0,24.0,65,0.00,,,-99.99,WeatherLink 5.6,2012-11-02 16:40:00,
2012-11-02 13:10:00,45.6,32.1,29.78,NW,315,10.0,20.0,59,0.00,,,-99.99,WeatherLink 5.6,2012-11-02 17:10:00,
2012-11-02 13:40:00,47.2,35.2,29.78,WNW,292,6.0,22.0,63,0.00,,,-99.99,WeatherLink 5.6,2012-11-02 17:40:00,
2012-11-02 14:10:00,47.0,32.1,29.78,WNW,292,5.0,13.0,56,0.00,,,-99.99,WeatherLink 5.6,2012-11-02 18:10:00,
2012-11-02 14:40:00,47.9,32.5,29.77,NW,315,5.0,15.0,55,0.00,,,-99.99,WeatherLink 5.6,2012-11-02 18:40:00,
2012-11-02 15:10:00,48.6,31.8,29.77,NW,315,6.0,17.0,52,0.00,,,-99.99,WeatherLink 5.6,2012-11-02 19:10:00,
2012-11-02 15:40:00,48.8,31.5,29.78,NW,315,5.0,18.0,51,0.00,,,-99.99,WeatherLink 5.6,2012-11-02 19:40:00,
2012-11-02 16:10:00,48.8,31.9,29.79,NW,315,6.0,17.0,52,0.00,,,-99.99,WeatherLink 5.6,2012-11-02 20:10:00,
2012-11-02 16:40:00,48.2,30.9,29.80,NW,315,6.0,15.0,51,0.00,,,-99.99,WeatherLink 5.6,2012-11-02 20:40:00,
2012-11-02 17:10:00,48.4,31.1,29.81,NW,315,4.0,13.0,51,0.00,,,-99.99,WeatherLink 5.6,2012-11-02 21:10:00,
2012-11-02 17:40:00,47.0,31.2,29.82,NW,315,4.0,16.0,54,0.00,,,-99.99,WeatherLink 5.6,2012-11-02 21:40:00,
2012-11-02 18:10:00,46.5,30.3,29.83,NW,315,7.0,16.0,53,0.00,,,-99.99,WeatherLink 5.6,2012-11-02 22:10:00,
2012-11-02 18:40:00,46.0,29.3,29.84,NW,315,8.0,15.0,52,0.00,,,-99.99,WeatherLink 5.6,2012-11-02 22:40:00,
2012-11-02 19:10:00,44.2,29.9,29.86,NW,315,3.0,13.0,57,0.00,,,-99.99,WeatherLink 5.6,2012-11-02 23:10:00,
2012-11-02 19:40:00,43.6,29.8,29.87,NW,315,1.0,10.0,58,0.00,,,-99.99,WeatherLink 5.6,2012-11-02 23:40:00,
2012-11-02 20:10:00,42.9,29.1,29.88,NW,315,1.0,7.0,58,0.00,,,-99.99,WeatherLink 5.6,2012-11-03 00:10:00,
2012-11-02 20:40:00,41.4,29.3,29.88,NW,315,0.0,7.0,62,0.00,,,-99.99,WeatherLink 5.6,2012-11-03 00:40:00,
2012-11-02 21:10:00,40.8,28.8,29.89,WNW,292,0.0,6.0,62,0.00,,,-99.99,WeatherLink 5.6,2012-11-03 01:10:00,
2012-11-02 21:40:00,40.2,29.0,29.90,NW,315,1.0,9.0,64,0.00,,,-99.99,WeatherLink 5.6,2012-11-03 01:40:00,
2012-11-02 22:10:00,39.5,28.7,29.90,WNW,292,3.0,12.0,65,0.00,,,-99.99,WeatherLink 5.6,2012-11-03 02:10:00,
2012-11-02 22:40:00,39.0,29.0,29.92,NW,315,4.0,12.0,67,0.00,,,-99.99,WeatherLink 5.6,2012-11-03 02:40:00,